Regional Weather Roundup
Issued by NWS

Home | Current Version | Previous Version | Graphics & Text | Print | Product List | Glossary On
Versions: 1 2 3 4 5 6 7 8 9 10 11 12 13 14 15 16 17 18 19 20 21 22 23 24 25 26 27 28 29 30 31 32 33 34 35 36 37 38 39 40 41 42 43 44 45 46 47 48 49 50
000
ASUS43 KLOT 021100
RWRIL

ILLINOIS REGIONAL WEATHER ROUNDUP
NATIONAL WEATHER SERVICE CHICAGO/ROMEOVILLE IL
600 AM CDT WED SEP 02 2015

NOTE: "FAIR" INDICATES FEW OR NO CLOUDS BELOW 12,000 FEET WITH NO
SIGNIFICANT WEATHER AND/OR OBSTRUCTIONS TO VISIBILITY.

* THESE STATIONS ARE NOT UNDER NWS QUALITY CONTROL. THEY ALSO MAY NOT
  REPORT WEATHER SUCH AS PRECIPITATION OR FOG.

ILZ001-002-007-009-015-016-024-021200-
NORTHWEST ILLINOIS

CITY           SKY/WX    TMP DP  RH WIND       PRES   REMARKS
MOLINE         CLEAR     72  66  81 CALM      30.03R
STERLING*      CLEAR     66  66 100 CALM      30.02R
$$

ILZ003-004-008-010-011-017-018-021200-
NORTH CENTRAL ILLINOIS

CITY           SKY/WX    TMP DP  RH WIND       PRES   REMARKS
ROCKFORD       CLEAR     69  66  90 S5        30.05R
FREEPORT*      CLEAR     69  67  92 SW8       30.05R
$$

ILZ005-006-012>014-019>023-021200-
NORTHEAST ILLINOIS

CITY           SKY/WX    TMP DP  RH WIND       PRES   REMARKS
CHICAGO-OHARE  PTCLDY    73  68  84 SW7       30.03R
CHICAGO-MIDWAY PTCLDY    74  68  81 SW7       30.04R
AURORA         CLEAR     64  63  96 CALM      30.06R FOG
LANSING*       CLEAR     66  65  97 S3        30.05R FOG
WAUKEGAN       CLEAR     72  68  87 VRB3      30.02R
DUPAGE AIRPORT CLEAR     70  66  87 SW5       30.04R FOG
WHEELING       MOCLDY    74  68  81 W3        30.04R
NORTHERLY ISL    N/A     75  67  76 SW8         N/A
$$

LMZ740>746-021200-
SOUTHERN LAKE MICHIGAN

STATION/POSITION SKY/WX   TEMP    WIND        PRES    VSBY  WAVE
                          AIR SEA DIR/SP/G                  HT/PER
                          (F)     (DEG/KT/KT) (MB)    (MI)  (FT/S)
SOUTHERN BUOY              72 70  210/ 10/ 12 1015.7          1/ 3
WILMETTE HARBOR            69 60   50/  6/  8   N/A           0
HARRISON CRIB              72     170/  2/  6   N/A
BURNHAM HARBOR             75     260/  8/  9   N/A
CALUMET HARBOR             73     210/  4/  6   N/A
BURNS HARBOR               73     200/ 11/ 14 1017.6S
MICHIGAN CITY              73     180/ 10/ 11   N/A
MICHIGAN CITY 6N           73 72  210/  8/ 10   N/A           1/ 3
ST. JOSEPH                 73 72  240/  8/  8   N/A           1/ 3
$$

ILZ025>027-034>036-040-047-049-050-058-095>099-021200-
WEST-CENTRAL ILLINOIS

CITY           SKY/WX    TMP DP  RH WIND       PRES   REMARKS
QUINCY         CLEAR     71  68  90 S6        30.05R
$$

ILZ028>032-037-038-041>044-048-051>054-059>061-021200-
CENTRAL ILLINOIS

CITY           SKY/WX    TMP DP  RH WIND       PRES   REMARKS
DECATUR        CLEAR     70  66  87 SW3       30.09R
PEORIA         CLEAR     72  68  87 S3        30.06R FOG
SPRINGFIELD    CLEAR     72  68  87 SW3       30.08R
TAYLORVILLE    NOT AVBL
$$

ILZ033-039-045-046-055>057-062-063-021200-
EAST-CENTRAL ILLINOIS

CITY           SKY/WX    TMP DP  RH WIND       PRES   REMARKS
CHAMPAIGN      CLEAR     69  67  93 SW5       30.10R FOG
MATTOON        FOG       70  67  90 S3        30.10R VSB 3/4
$$

ILZ079-100>102-021200-
SOUTHWEST ILLINOIS

CITY           SKY/WX    TMP DP  RH WIND       PRES   REMARKS
BELLEVILLE     CLEAR     69  69 100 CALM      30.08R FOG
CAHOKIA*       CLEAR     69  66  90 S3        30.09R
SPARTA*        CLEAR     67  67  98 CALM      30.11R
$$

ILZ064>066-069>071-074>076-080>082-084>086-088>090-092>094-021200-
SOUTH-CENTRAL ILLINOIS

CITY           SKY/WX    TMP DP  RH WIND       PRES   REMARKS
CARBONDALE     CLEAR     66  64  93 CALM      30.10R FOG
MT. VERNON     CLEAR     63  57  82 CALM      30.11R
$$

ILZ067-068-072-073-078-083-087-091-021200-
SOUTHEAST ILLINOIS

CITY           SKY/WX    TMP DP  RH WIND       PRES   REMARKS
LAWRENCEVILLE  FOG       67  66  97 CALM      30.11R VSB 1/2
FLORA*         CLEAR     65  65  97 CALM      30.11R FOG
ROBINSON*      CLEAR     64  63  97 CALM      30.11R FOG
$$

ABBREVIATIONS USED IN REMARKS
   TC - TEMPERATURE IN CELSIUS
  WCI - WIND CHILL INDEX
   HX - HEAT INDEX
  VSB - VISIBILITY
$$




USA.gov is the U.S. government's official web portal to all federal, state and local government web resources and services.